Torna al catalogo

SL-12 R/B(2)

AttivoMEO
NORAD 15702·ROCKET BODY·🇷🇺 Russia

Lanciato May 17, 1985 da Baikonur Cosmodrome

Loading…

Prossimi Passaggi (prossime 24 ore)

TLE

AggiornatoSource: Space-Track

Epoca: Sep 8, 2026, 10:31 UTC

1 15702U 85037F   26251.43852295  .00000032  00000-0  00000-0 0  9997
2 15702  64.9494  68.8326 0033387  23.4872 339.6765  2.13322234321654

Traccia SL-12 R/B(2) in tempo reale con AllMySat

Download on the App Store